Theta_e
307 307 307 309 309 310 310 311 310 309 309 309 309 310 310 312 313 311 309 309 310 313 314 311 309 310 316 317 320 323 328 331 332 332 331 323 326 320 322 325 328 328 326 328 338
304 303 302 305 305 308 309 310 309 308 309 310 309 309 313 312 313 308 307 309 307 307 319 308 310 309 317 316 320 324 326 327 328 329 328 323 325 322 325 327 328 329 329 334 334
303 303 300 302 303 305 308 308 307 307 308 310 311 309 313 312 309 307 310 317 310 307 319 309 308 312 316 317 318 321 321 322 326 326 327 323 324 323 326 327 326 328 331 333 334
302 301 301 301 302 304 305 307 306 308 307 309 310 310 313 309 309 313 310 314 317 309 318 308 307 310 318 318 316 319 318 319 324 325 326 326 324 325 326 327 326 327 331 333 334
301 301 300 300 301 302 302 304 304 305 307 308 311 311 308 307 308 305 307 313 316 311 313 309 307 310 315 318 316 318 318 318 322 322 324 322 325 326 327 325 327 326 333 335 335
299 299 300 300 300 300 301 300 302 304 306 308 310 311 307 310 304 305 306 310 311 313 311 311 308 311 316 318 317 316 317 319 320 320 322 326 324 324 326 326 330 331 334 335 335
300 298 297 297 297 296 297 298 300 302 306 308 311 310 309 310 307 308 306 312 308 311 311 310 309 319 317 320 318 318 319 319 320 320 320 322 326 326 323 326 330 332 334 335 335
302 302 299 299 299 297 297 297 300 302 306 308 311 310 311 309 309 309 307 307 310 314 313 311 317 321 322 318 318 320 319 318 318 320 319 318 325 325 320 327 329 332 333 334 335
302 301 300 299 300 298 297 299 304 306 309 311 310 311 313 310 310 308 307 311 315 315 314 314 318 319 320 321 322 320 321 319 320 318 319 316 319 315 317 321 328 331 332 332 333
301 300 299 299 299 299 299 302 306 306 308 310 310 312 312 312 311 309 307 313 315 314 317 317 316 318 321 321 321 323 321 320 319 319 319 319 317 315 315 318 323 327 329 331 331
300 300 299 299 299 302 301 304 305 307 305 307 308 309 311 310 309 308 310 315 314 313 311 317 316 319 317 317 313 318 320 320 317 316 320 321 320 318 316 316 319 321 322 323 324
301 300 299 299 298 302 303 304 305 304 306 305 306 307 307 311 313 309 313 313 314 308 315 317 314 315 318 319 315 316 318 316 316 315 319 318 320 320 318 318 317 317 319 320 320
300 300 299 298 298 302 302 302 304 305 305 305 306 310 311 311 312 312 313 314 311 311 312 309 309 314 312 316 319 318 314 313 314 314 310 312 315 315 313 313 314 315 317 316 316
301 300 299 298 299 299 303 300 303 304 306 304 309 311 311 310 312 311 311 312 313 309 313 310 310 313 314 314 317 319 315 313 316 315 312 309 315 311 308 308 307 311 314 314 314
302 301 299 299 299 300 300 301 303 302 309 304 309 309 311 312 312 312 310 313 311 310 311 307 312 313 312 311 315 314 313 313 312 314 314 312 311 313 306 309 308 306 306 308 307
302 301 299 299 298 300 300 302 301 309 307 306 308 308 310 311 312 311 311 312 311 311 310 308 310 310 310 311 314 312 315 316 316 316 318 312 312 313 311 309 307 306 309 308 307
302 301 299 299 301 298 301 299 308 307 298 306 307 308 308 311 312 312 312 313 314 313 310 311 311 310 310 313 313 314 315 318 318 321 315 308 312 311 311 309 305 306 305 309 307
302 300 300 300 299 299 297 303 303 294 302 304 306 308 309 308 311 312 312 315 312 312 313 310 308 311 311 313 314 315 312 314 315 317 312 306 314 314 307 305 306 306 306 307 308
301 300 299 299 299 299 301 302 302 298 303 303 305 308 308 308 310 312 313 313 312 311 315 314 310 311 311 311 312 313 313 311 316 310 316 314 311 308 309 307 307 305 306 308 309
300 298 298 299 299 297 302 300 298 296 301 302 306 306 308 308 307 312 313 309 311 312 310 312 314 311 311 311 311 312 311 316 317 318 318 313 308 311 310 306 306 308 308 308 307
299 300 299 299 297 299 302 296 294 296 299 303 301 304 305 306 308 309 311 308 308 309 312 311 313 313 313 313 313 311 312 313 313 312 312 310 309 306 306 305 306 306 308 308 308
295 300 299 298 301 291 297 291 293 297 301 303 303 304 305 305 306 307 308 310 307 309 310 309 312 313 312 309 308 311 311 312 314 315 312 310 313 309 306 305 307 307 306 307 308
297 298 299 297 300 298 294 294 294 298 301 304 305 304 305 306 306 306 305 307 307 307 309 308 312 316 316 313 311 312 311 310 310 310 314 313 312 304 306 307 307 307 306 307 308
297 300 299 299 294 297 296 295 296 295 297 299 302 303 305 303 304 306 305 305 306 306 307 308 308 309 312 310 310 314 311 311 311 315 312 311 310 309 309 309 308 308 307 307 307
297 298 296 301 300 298 297 296 296 297 295 296 300 302 301 302 304 305 303 302 303 304 306 307 308 309 308 309 309 309 308 310 313 313 315 312 312 310 310 308 308 308 306 306 306
298 298 294 296 298 298 298 297 297 297 297 297 298 300 302 301 300 302 302 301 302 305 305 303 306 304 304 303 305 306 306 307 307 309 312 312 313 311 310 309 307 306 306 306 307
296 295 298 297 298 298 299 298 298 297 297 297 298 299 300 301 301 301 300 301 302 304 305 305 303 302 303 301 304 304 304 306 305 307 308 309 309 308 308 308 308 307 306 306 307
Wind_Speed
12 12 12 14 15 16 17 17 18 19 18 17 16 22 15 17 12 9 12 9 6 14 11 9 6 9 4 3 2 2 5 9 9 8 4 8 10 4 2 6 3 5 0 4 21
13 13 12 13 14 15 16 17 18 19 20 18 19 21 15 9 8 7 13 14 14 16 10 11 8 12 2 2 4 5 7 10 4 6 5 9 8 10 7 7 7 7 4 10 19
11 13 14 13 15 15 16 17 18 20 21 19 17 21 8 5 6 4 2 7 6 15 6 5 4 2 3 3 6 5 7 5 5 4 4 8 7 7 6 8 9 12 12 14 19
10 12 14 14 15 17 16 17 18 20 21 22 14 20 6 4 3 4 9 6 3 4 6 3 1 1 3 7 4 5 5 2 2 3 4 7 5 7 11 2 1 4 12 18 18
11 12 14 15 16 17 18 18 18 19 19 22 7 12 5 2 2 1 1 3 2 2 8 2 2 3 8 5 4 6 3 4 1 2 2 5 6 4 10 3 1 7 14 15 16
11 12 14 16 17 17 19 20 19 18 17 17 1 2 6 5 1 6 5 3 5 0 6 1 0 4 8 4 7 2 3 3 2 2 1 4 3 2 6 6 4 8 12 13 16
11 13 14 16 18 19 19 20 19 17 14 14 5 3 2 6 2 12 5 3 5 3 4 1 8 4 5 3 1 1 5 2 4 3 2 2 4 7 2 6 7 8 9 11 14
12 14 14 16 18 20 21 20 20 14 12 10 4 1 3 6 7 6 3 1 9 4 4 4 7 6 5 2 1 3 2 6 4 4 1 4 11 8 4 6 10 9 9 10 13
10 13 15 16 19 22 21 20 12 5 6 1 0 1 3 8 4 6 0 2 8 9 8 7 5 4 3 4 3 1 5 8 2 3 2 7 7 3 1 6 9 9 9 9 10
10 12 15 16 18 20 20 13 5 4 2 3 3 1 1 4 6 7 1 2 4 8 6 7 2 6 2 7 8 5 6 5 12 4 3 7 12 2 3 4 9 9 8 9 10
9 11 13 15 16 16 18 4 6 1 7 4 7 4 4 11 2 4 3 2 1 4 6 4 6 7 10 5 3 2 3 6 0 2 4 10 12 11 4 5 8 9 10 10 10
8 10 12 14 12 11 15 6 4 3 5 5 5 6 6 6 2 4 3 2 1 5 5 2 10 6 4 4 2 2 1 1 0 2 2 2 14 12 8 8 10 10 10 11 7
8 9 11 13 5 5 8 7 4 2 2 5 3 3 2 5 3 5 4 0 3 7 11 5 3 12 11 7 7 4 2 1 2 1 2 2 8 10 5 8 10 12 12 10 10
8 9 10 11 1 6 2 13 5 2 1 9 5 4 3 3 1 3 5 2 2 5 6 1 2 11 12 12 7 3 2 3 3 2 4 2 6 4 3 9 8 12 12 13 11
6 8 8 7 3 2 9 10 5 2 1 12 5 5 4 3 3 4 5 2 2 4 3 3 5 7 5 4 9 5 3 1 2 2 1 4 5 4 1 5 7 4 4 6 6
5 5 6 3 2 6 11 9 2 2 4 5 5 7 5 2 2 1 4 3 1 3 2 2 1 2 1 2 3 11 5 3 2 1 5 2 4 8 4 3 1 1 3 4 3
2 3 3 3 2 10 10 2 1 3 2 6 4 6 5 5 1 1 2 0 3 4 4 2 2 1 2 8 3 6 7 3 4 4 6 3 3 9 11 6 4 3 5 2 0
1 0 1 2 5 9 4 2 2 1 3 4 3 3 4 7 3 2 4 1 1 2 3 6 4 5 3 3 6 9 12 5 6 4 1 2 6 2 3 4 4 5 6 3 4
2 1 2 4 4 6 2 3 2 4 1 4 5 2 4 2 3 4 3 3 4 6 1 4 3 1 1 1 2 5 8 8 3 2 1 4 5 10 10 3 3 3 2 6 4
3 2 2 2 3 3 3 3 2 3 1 2 3 3 5 6 3 5 4 5 6 5 2 2 3 0 0 1 4 5 11 6 4 4 5 5 5 7 6 6 8 5 5 6 4
3 1 3 1 2 4 2 2 3 4 4 0 2 2 3 4 3 3 6 2 3 5 2 2 3 1 3 3 6 4 5 3 5 1 3 3 4 4 3 1 5 8 6 5 6
3 2 2 1 2 1 3 4 2 2 2 2 0 1 1 4 4 4 4 4 8 5 2 6 1 3 3 3 5 1 0 6 4 4 3 2 7 4 5 3 5 8 6 4 5
2 2 0 2 2 2 1 1 2 1 1 2 2 3 0 2 2 4 4 3 3 3 0 0 1 3 4 0 2 4 8 7 3 1 9 5 4 1 4 5 4 5 5 5 6
3 3 0 2 0 5 4 2 1 1 2 3 1 1 1 2 2 1 3 2 2 2 3 1 2 3 3 3 2 1 1 1 12 6 9 17 18 14 16 16 14 7 3 4 5
1 2 1 4 3 4 5 6 3 2 1 2 2 6 3 2 2 2 0 3 0 4 1 1 1 2 4 3 3 4 7 5 7 12 7 13 16 15 15 12 14 11 3 5 7
4 3 1 3 3 7 7 5 8 3 4 3 3 2 6 4 3 4 1 1 1 2 1 2 1 1 3 3 7 7 11 12 14 13 16 18 25 13 16 16 12 11 7 9 12
4 3 1 5 5 6 5 6 9 7 6 4 6 2 2 8 8 5 5 3 2 1 0 2 4 2 2 5 5 5 9 13 8 9 10 14 22 11 13 11 13 11 10 13 11
Wind_Direction
11 4 359 353 352 351 350 352 345 342 324 327 305 326 282 284 287 301 267 254 274 268 322 336 359 342 263 239 204 238 219 224 212 191 170 154 187 156 132 154 188 180 264 85 148
6 3 359 353 347 347 345 345 342 341 334 311 327 316 289 265 290 274 274 267 272 285 266 11 357 341 294 227 188 221 219 221 228 190 176 176 196 163 179 172 185 192 130 135 152
360 359 360 351 352 347 342 340 339 339 339 325 322 328 285 216 266 242 151 320 309 255 228 328 346 306 330 256 190 175 230 219 207 193 151 166 196 174 194 201 204 199 174 163 165
355 354 358 353 354 351 343 338 336 336 339 340 337 338 158 177 259 49 355 310 328 250 170 329 20 318 249 247 185 203 227 206 151 181 168 164 167 192 213 115 293 169 167 164 177
351 354 353 351 352 351 345 340 334 333 337 342 344 24 104 161 270 76 21 326 358 200 132 161 197 238 241 258 193 224 184 178 144 208 216 146 182 226 216 189 104 160 158 172 182
356 354 350 344 342 345 341 339 335 331 336 337 340 63 120 214 238 4 13 163 288 197 107 160 61 309 282 251 225 244 171 138 174 201 201 196 151 197 206 167 148 174 175 178 186
359 356 350 344 338 337 335 334 331 326 330 334 286 336 188 238 48 331 317 169 48 317 114 168 289 269 295 251 308 173 172 138 193 195 220 234 180 211 126 188 187 184 186 181 188
350 348 349 345 340 337 335 330 325 322 323 317 317 192 324 346 337 331 294 253 124 223 145 164 274 278 259 305 84 175 177 192 151 182 190 227 223 195 151 198 203 194 191 189 195
345 339 344 344 336 338 336 329 329 348 7 50 244 337 44 342 12 333 118 129 158 185 185 136 289 283 260 211 174 167 205 206 186 211 187 220 236 142 173 194 214 206 199 199 197
345 345 343 342 340 343 342 333 31 56 4 21 27 260 22 334 308 319 65 128 224 153 157 149 137 276 251 215 213 175 204 211 213 165 220 212 240 177 195 237 221 216 213 207 214
342 342 341 341 348 354 355 15 5 49 21 7 310 276 321 329 29 5 22 120 290 149 181 159 176 217 231 238 360 287 223 216 205 36 216 232 254 244 210 249 237 232 223 227 222
340 343 344 342 348 12 41 60 28 318 324 334 293 282 281 310 325 49 338 167 91 184 116 141 215 155 34 283 313 44 232 199 7 11 220 284 263 258 242 248 237 238 243 241 227
331 332 339 341 345 29 59 42 346 104 286 313 327 322 358 316 12 357 325 351 117 138 192 192 68 168 176 224 232 228 265 226 355 93 67 310 272 248 231 248 254 248 246 256 249
325 338 341 345 11 357 76 350 342 244 332 4 358 12 324 308 53 355 351 350 117 162 168 206 45 165 174 198 196 251 267 245 149 200 251 322 261 238 240 254 247 251 251 252 248
317 332 344 15 330 37 324 336 334 200 105 345 342 334 325 347 335 45 359 271 115 123 193 129 164 164 177 202 194 198 13 110 126 152 262 203 261 227 21 258 241 236 268 284 281
311 327 340 358 6 349 337 331 314 254 45 357 354 356 339 4 350 69 14 8 71 98 44 58 6 189 326 46 146 136 93 50 45 67 254 206 259 242 207 234 83 345 335 331 334
284 317 348 9 349 341 343 15 307 65 321 343 343 336 347 336 350 102 63 340 150 150 192 148 145 224 174 113 157 110 158 202 223 210 250 54 245 285 287 278 287 290 318 345 0
240 271 33 354 329 346 5 57 67 328 248 337 325 338 50 1 1 316 150 103 111 52 167 198 181 190 172 202 176 154 193 191 204 214 322 71 242 226 242 260 267 280 291 219 193
150 114 80 347 351 352 54 66 151 192 329 346 313 55 26 53 18 336 195 169 204 179 290 189 230 295 290 351 177 164 205 201 47 95 286 248 258 263 293 20 2 314 256 221 211
147 113 36 17 13 31 71 113 187 209 259 342 59 17 14 358 19 27 20 7 344 213 156 236 216 106 297 183 76 195 144 124 181 197 229 229 259 248 266 357 341 318 235 225 210
121 99 351 92 31 48 103 163 241 244 243 327 130 342 23 355 9 43 17 33 5 329 83 181 276 136 194 187 169 145 176 104 131 224 263 280 232 211 246 43 331 324 299 253 222
115 97 340 32 59 27 134 179 250 258 179 234 156 84 339 354 356 35 39 348 344 345 77 1 275 182 185 23 323 269 133 191 201 191 249 289 254 295 319 9 348 330 303 265 252
98 96 38 9 149 128 107 259 271 275 217 190 191 207 210 44 45 9 18 324 355 0 60 15 351 183 154 259 11 211 213 226 236 60 225 246 245 72 15 35 38 354 325 282 248
124 129 332 75 105 139 156 184 242 272 275 297 260 132 178 48 91 52 8 326 330 318 200 12 71 50 37 5 14 180 70 248 227 236 254 243 266 272 302 319 325 333 284 260 258
50 161 213 167 203 173 177 163 165 214 210 311 221 224 184 198 159 150 54 340 126 321 51 315 119 272 225 247 241 248 254 254 247 239 233 263 270 268 281 283 285 294 249 233 227
145 161 88 153 139 167 189 211 205 190 186 188 217 187 212 225 224 173 352 337 359 46 74 1 124 6 280 276 250 259 254 250 247 249 254 260 268 276 281 279 274 267 256 248 238
151 104 151 158 153 172 203 202 208 185 215 186 198 175 255 249 241 286 284 256 255 308 233 123 143 160 252 2 345 297 255 233 250 234 257 264 268 294 297 275 261 258 247 244 242